This is the latest recevied weather packets stored in our database for station/object N4OOJ-13. If no packets are shown the sender has not sent any weather packets the latest 10 day(s).
| Time | Temp. | Humidity | Pressure | Rain* | Wind** | Luminosity | Snow |
|---|---|---|---|---|---|---|---|
| 1778258426 | 23.89° C | 48% | 1018.6 hPa | 0 mm | - | - | - |
| 1778257821 | 23.33° C | 49% | 1018.7 hPa | 0 mm | - | - | - |
| 1778257216 | 22.78° C | 48% | 1018.9 hPa | 0 mm | - | - | - |
| 1778256628 | 23.33° C | 49% | 1019.3 hPa | 0 mm | - | - | - |
| 1778256024 | 22.78° C | 49% | 1019.4 hPa | 0 mm | - | - | - |
| 1778255418 | 22.78° C | 48% | 1019.6 hPa | 0 mm | - | - | - |
| 1778254832 | 22.78° C | 49% | 1019.6 hPa | 0 mm | - | - | - |
| 1778254221 | 22.78° C | 51% | 1019.5 hPa | 0 mm | - | - | - |
| 1778253616 | 22.78° C | 52% | 1019.5 hPa | 0 mm | - | - | - |
| 1778253017 | 22.22° C | 54% | 1019.6 hPa | 0 mm | - | - | - |
| 1778252430 | 21.11° C | 55% | 1019.6 hPa | 0 mm | - | - | - |
| 1778251830 | 21.67° C | 54% | 1019.7 hPa | 0 mm | - | - | - |
| 1778251225 | 21.11° C | 58% | 1019.6 hPa | 0 mm | - | - | - |
| 1778250620 | 20.56° C | 58% | 1019.4 hPa | 0 mm | - | - | - |
| 1778250015 | 20.56° C | 62% | 1019.2 hPa | 0 mm | - | - | - |
| 1778249423 | 20.56° C | 65% | 1019.2 hPa | 0 mm | - | - | - |
| 1778248823 | 20° C | 69% | 1019.2 hPa | 0 mm | - | - | - |
| 1778248217 | 18.89° C | 75% | 1019.2 hPa | 0 mm | - | - | - |
| 1778247629 | 18.33° C | 76% | 1019.1 hPa | 0 mm | - | - | - |
| 1778247025 | 18.33° C | 78% | 1019 hPa | 0 mm | - | - | - |
| 1778246425 | 18.89° C | 77% | 1018.8 hPa | 0 mm | - | - | - |
| 1778245819 | 17.78° C | 80% | 1018.7 hPa | 0 mm | - | - | - |
| 1778245219 | 17.78° C | 84% | 1018.7 hPa | 0 mm | - | - | - |
| 1778244626 | 16.67° C | 89% | 1018.7 hPa | 0 mm | - | - | - |
| 1778244021 | 16.11° C | 92% | 1018.6 hPa | 0 mm | - | - | - |
* Rain latest hour (hover to see other rain measurements)
** Current wind speed in m/s (hover to see current wind gust speed)